Flag for Italy Weather past 2 weeks in Bologna, Italy

Now
64 °F

Passing clouds.


Feels Like: 64 °F
Forecast: 64 / 78 °F
Wind: 7 mph from Southwest

Location: Bologna / Borgo Panigale

Current Time: Aug 22, 2014 at 4:56:17 AM

Latest Report: Aug 22, 2014 at 4:20 AM


Visibility: N/A

Pressure: 29.95 "Hg

Humidity: 68%

Dew point: 54 °F

Location of BolognaLocation

Historic Weather in Bologna — Graph

°F

Bologna temperature yesterday

Maximum temperature yesterday: 82 °F (at 2:50 PM)
Minimum temperature yesterday: 63 °F (at 6:20 AM)
Average temperature yesterday: 73 °F

Past Weeks' High & Low Weather Summary

 TemperatureHumidityPressure
High91 °F (Aug 10, 4:50 PM)100% (Aug 16, 9:20 AM)30.09 "Hg (Aug 16, 9:20 AM)
Low55 °F (Aug 17, 5:50 AM)32% (Aug 17, 4:20 PM)29.68 "Hg (Aug 13, 2:20 PM)
Average75 °F64%29.90 "Hg
* Reported Aug 7 3:20 AM — Aug 22 3:20 AM, Bologna, Weather by CustomWeather, © 2014

Note: Actual official high and low records may vary slightly from our data, if they occured in-between our weather recording intervals... More about our weather records

Advertising

Bologna weather history for previous 24 hours

 ConditionsComfort  
Time TempWeatherWind HumidityBarometerVisibility
3:20 AM
Aug 22
63 °FPassing clouds.7 mph64%29.95 "HgN/A
2:50 AM61 °FClear.6 mph68%29.95 "Hg10 mi
2:20 AM63 °FClear.3 mph64%29.95 "Hg10 mi
1:50 AM63 °FClear.5 mph64%29.92 "Hg10 mi
1:20 AM64 °FClear.6 mph60%29.92 "Hg10 mi
12:50 AM66 °FClear.7 mph56%29.92 "Hg10 mi
12:20 AM66 °FClear.7 mph56%29.92 "Hg10 mi
11:50 PM
Aug 21
70 °FClear.7 mph50%29.92 "Hg10 mi
11:20 PM70 °FClear.8 mph53%29.92 "Hg10 mi
10:50 PM70 °FClear.6 mph50%29.92 "Hg10 mi
10:20 PM72 °FPassing clouds.2 mph47%29.92 "HgN/A
9:50 PM72 °FPassing clouds.5 mph47%29.92 "HgN/A
9:20 PM73 °FThundershowers. Passing clouds.10 mph41%29.89 "HgN/A
8:50 PM75 °FScattered clouds.13 mph39%29.89 "HgN/A
8:20 PM77 °FPassing clouds.12 mph36%29.89 "HgN/A
7:50 PM79 °FPassing clouds.12 mph37%29.89 "HgN/A
7:20 PM81 °FPassing clouds.12 mph34%29.89 "HgN/A
6:50 PM81 °FPassing clouds.12 mph34%29.89 "HgN/A
6:20 PM82 °FPassing clouds.13 mph32%29.89 "HgN/A
5:50 PM82 °FScattered clouds.5 mph48%29.89 "HgN/A
5:20 PM82 °FScattered clouds.9 mph48%29.89 "HgN/A
4:50 PM82 °FScattered clouds.7 mph48%29.89 "HgN/A
4:20 PM82 °FPassing clouds.7 mph48%29.89 "HgN/A
3:50 PM82 °FScattered clouds.8 mph42%29.89 "HgN/A
3:20 PM82 °FScattered clouds.7 mph45%29.89 "HgN/A
2:50 PM82 °FPassing clouds.7 mph42%29.92 "HgN/A
2:20 PM81 °FPassing clouds.8 mph51%29.92 "HgN/A
1:50 PM81 °FPassing clouds.6 mph48%29.92 "HgN/A
1:20 PM81 °FPassing clouds.8 mph51%29.92 "HgN/A
12:50 PM81 °FPassing clouds.6 mph51%29.95 "HgN/A
12:20 PM79 °FSunny.6 mph54%29.95 "Hg10 mi
11:50 AM79 °FPassing clouds.6 mph54%29.95 "HgN/A
11:20 AM77 °FPassing clouds.6 mph57%29.95 "HgN/A
10:50 AM77 °FSunny.3 mph57%29.95 "Hg10 mi
10:20 AM75 °FSunny.1 mph65%29.95 "Hg10 mi
9:50 AM73 °FSunny.1 mph65%29.95 "Hg10 mi
9:20 AM70 °FSunny.1 mph78%29.92 "Hg10 mi
8:50 AM66 °FSunny.2 mph78%29.92 "Hg10 mi
8:20 AM66 °FSunny.2 mph78%29.92 "Hg10 mi
7:50 AM64 °FSunny.5 mph78%29.92 "Hg10 mi
7:20 AM64 °FClear.1 mph88%29.89 "Hg10 mi
6:50 AM64 °FClear.2 mph83%29.89 "Hg10 mi
6:20 AM63 °FClear.5 mph88%29.89 "Hg10 mi
5:50 AM64 °FClear.2 mph83%29.89 "Hg10 mi
5:20 AM64 °FClear.5 mph83%29.86 "Hg10 mi
4:50 AM64 °FClear.6 mph83%29.89 "Hg10 mi
4:20 AM66 °FPassing clouds.6 mph83%29.89 "HgN/A
Weather by CustomWeather, © 2014

See weather overviewHow to use our weather pages